Kaikoura (NZKI)

Aerodrome — Elev 19
New Zealand
S042.25.30.000 E173.36.19.000
Loading chart...

Current Weather

NZKI 201200Z 30006KT 20KM SCT045 BKN050 05/04 Q0989 RMK AUTO NZWB VATSIM USE ONL

Published 44 minutes ago

Airport Activity

Loading chart...
Loading chart...

Positions

CallsignRadio Name / Freq / Voice Room / TypeFrequencyVoice RoomType
NZCH-K_CTR Christchurch Control
129.400
nzch-k_ctr
129.400nzch-k_ctr
UNICOM NZZC UNICOM
122.800
unicom_nzzc
122.800unicom_nzzc

Charts